#timestamp,LO_Frequency,Hit,StdDev 
1558076415.0,286047000.0,N
1558076415.9,286047000.0,N
1558076435.8,286046999.7,N
1558076455.6,286047000.9,N
1558076475.5,286046998.8,N
1558076495.3,286046999.1,N
1558076515.1,286047000.9,N
1558076535.9,286047000.3,N
1558076555.7,286046999.2,N
1558076575.5,286046995.0,Y
1558076595.4,286046996.5,P
1558076615.2,286046997.9,N
1558076635.1,286046996.6,N
1558076636.0,286046996.6,N
1558076655.8,286046999.0,N
1558076675.1,286047001.1,N
1558076695.9,286046999.9,N
1558076715.7,286047000.2,N
1558076735.9,286047000.3,N
1558076755.7,286047002.0,N
1558076775.5,286047002.4,N
1558076795.4,286046999.8,N
1558076815.1,286046999.6,N
1558076835.1,286046997.1,N
1558076855.9,286046996.7,N
1558076875.7,286046999.6,N
1558076895.5,286046997.4,N
1558076915.4,286046998.4,N
1558076935.2,286046998.7,N
1558076955.1,286046998.1,N
1558076956.0,286046998.1,N
1558076975.8,286047000.2,N
1558076995.6,286047000.7,N
1558077015.5,286047001.2,N
1558077035.3,286046998.4,N
1558077055.2,286046998.8,N
1558077075.0,286046998.3,N
1558077075.9,286046998.3,N
1558077095.7,286046998.2,N
1558077115.6,286047001.1,N
1558077135.4,286046998.1,N
1558077155.3,286047001.0,N
1558077175.1,286047000.1,N
1558077195.8,286047000.1,N
1558077215.7,286047000.1,N
1558077235.5,286047002.6,N
1558077255.4,286047002.1,N
1558077275.2,286047001.5,N
1558077295.0,286047001.6,N
1558077295.9,286047001.6,N
1558077315.8,286047001.8,N
1558077335.6,286047001.4,N
1558077355.5,286047001.6,N
1558077375.3,286047002.6,N
1558077395.1,286046999.7,N
1558077415.9,286046999.8,N
1558077435.7,286047002.2,N
1558077455.5,286047002.1,N
1558077475.4,286047000.2,N
1558077495.2,286047000.4,N
1558077515.0,286046998.5,N
1558077516.0,286046998.5,N
1558077535.8,286046999.2,N
1558077555.6,286046997.0,N
1558077575.5,286046996.5,N
1558077595.3,286046996.8,N
1558077615.1,286046997.4,N
1558077635.9,286046997.5,N
1558077655.7,286046998.0,N
1558077675.5,286046997.3,N
1558077695.4,286046995.4,N
1558077715.2,286046997.6,N
1558077735.1,286046996.2,N
1558077736.0,286046996.2,N
1558077755.8,286046993.3,Y
1558077775.6,286046996.2,P
1558077795.5,286046996.2,N
1558077815.3,286046995.8,N
1558077835.2,286046995.3,Y
1558077855.9,286046998.9,P
1558077875.7,286046998.3,N
1558077895.6,286047001.2,N
1558077915.4,286047000.8,N
1558077935.2,286046998.7,N
1558077955.1,286046997.5,N
1558077956.0,286046997.5,N
1558077975.8,286046997.4,N
1558077995.7,286046999.5,N
1558078015.5,286046999.1,N
1558078035.3,286046999.9,N
1558078055.2,286047001.1,N
1558078075.0,286047000.7,N
1558078075.9,286047000.7,N
1558078095.7,286046998.5,N
1558078115.6,286047001.2,N
1558078135.4,286047002.7,N
1558078155.3,286047000.4,N
1558078175.2,286047000.9,N
1558078195.9,286047000.7,N
1558078215.7,286047001.6,N
1558078235.6,286047001.7,N
1558078255.4,286047002.8,N
1558078275.2,286047000.9,N
1558078295.1,286047000.7,N
1558078296.0,286047000.7,N
1558078315.8,286046998.5,N
1558078335.7,286046996.7,N
1558078355.5,286046997.2,N
1558078375.3,286046996.6,N
1558078395.2,286046996.8,N
1558078415.9,286046997.8,N
1558078435.7,286046999.4,N
1558078455.6,286046998.1,N
1558078475.4,286047000.3,N
1558078495.2,286046998.2,N
1558078515.1,286047001.0,N
1558078516.0,286047001.0,N
1558078535.8,286046996.9,N
1558078555.7,286046995.4,N
1558078575.5,286046995.2,N
1558078595.3,286046994.9,N
1558078615.2,286046997.8,N
1558078635.0,286046999.6,N
1558078635.9,286046999.6,N
1558078655.7,286046998.8,N
1558078675.6,286046998.6,N
1558078695.4,286047000.3,N
1558078715.3,286047000.0,N
1558078735.1,286046998.4,N
1558078755.8,286046998.6,N
1558078775.7,286047000.5,N
1558078795.5,286047000.1,N
1558078815.3,286046998.5,N
1558078835.2,286046999.0,N
1558078855.0,286046998.3,N
1558078855.9,286046998.3,N
1558078875.8,286047001.2,N
1558078895.6,286046999.8,N
1558078915.4,286047001.2,N
1558078935.3,286046998.1,N
1558078955.1,286046998.6,N
1558078975.8,286047000.0,N
1558078995.7,286047001.5,N
1558079015.5,286047004.1,N
1558079035.4,286047003.2,N
1558079055.2,286047005.3,N
1558079075.0,286047005.6,N
1558079075.9,286047005.6,N
1558079095.8,286047003.7,N
1558079115.6,286047001.5,N
1558079135.5,286047003.6,N
1558079155.3,286047001.6,N
1558079175.1,286047000.3,N
1558079195.9,286047000.2,N
1558079215.7,286047000.0,N
1558079235.5,286047000.6,N
1558079255.4,286047001.2,N
1558079275.2,286047001.2,N
1558079295.1,286047000.8,N
1558079296.0,286047000.8,N
1558079315.8,286047000.9,N
1558079335.6,286046999.8,N
1558079355.5,286047002.7,N
1558079375.3,286047002.5,N
1558079395.1,286047002.5,N
1558079415.9,286047000.8,N
1558079435.7,286046998.1,N
1558079455.6,286046998.8,N
1558079475.4,286046998.2,N
1558079495.2,286047001.2,N
1558079515.1,286046998.6,N
1558079516.0,286046998.6,N
1558079535.8,286046996.5,N
1558079555.6,286046999.9,N
1558079575.5,286047001.4,N
1558079595.3,286047001.4,N
1558079615.2,286047001.4,N
1558079635.9,286047002.2,N
1558079655.7,286047001.1,N
1558079675.6,286047000.8,N
1558079695.4,286046999.8,N
1558079715.2,286047000.2,N
1558079735.1,286047002.2,N
1558079736.0,286047002.2,N
1558079755.8,286047004.4,N
1558079775.7,286047004.3,N
1558079795.5,286047004.4,N
1558079815.3,286047000.1,N
1558079835.2,286047002.4,N
1558079855.0,286047004.2,N
1558079855.9,286047004.2,N
1558079875.8,286047005.6,N
1558079895.6,286047004.1,N
1558079915.4,286047004.1,N
1558079935.3,286047003.0,N
1558079955.1,286047001.5,N
1558079975.8,286047001.9,N
1558079995.7,286047001.0,N
